K7WBM Weather Reports


Display with metric or nautical units.
time (UTC)temp
F
wind
direction
speed
MPH
gust
MPH
rain 1hr
in
rain 24hr
in
rain mn
in
humidity
%
barometer
mb
20260507234537 84 307 3.0 10.0 0.00 0.00 0.00 17 1013.7
20260507233038 84 319 4.0 12.0 0.00 0.00 0.00 19 1013.7
20260507231537 84 316 5.0 12.0 0.00 0.00 0.00 18 1013.7
20260507230037 84 302 3.0 15.0 0.00 0.00 0.00 18 1013.8
20260507224540 84 292 4.0 9.0 0.00 0.00 0.00 21 1014.0
20260507223038 84 321 1.0 10.0 0.00 0.00 0.00 21 1014.1
20260507221537 83 324 6.0 15.0 0.00 0.00 0.00 24 1014.2
20260507220038 83 233 1.0 10.0 0.00 0.00 0.00 20 1014.5
20260507214552 82 342 7.0 15.0 0.00 0.00 0.00 19 1014.7
20260507213039 83 288 2.0 9.0 0.00 0.00 0.00 21 1015.0
20260507211534 83 335 2.0 8.0 0.00 0.00 0.00 22 1015.4
20260507210050 82 281 3.0 9.0 0.00 0.00 0.00 23 1015.5
20260507204538 81 342 3.0 9.0 0.00 0.00 0.00 21 1015.4
20260507203047 82 333 4.0 9.0 0.00 0.00 0.00 21 1015.8
20260507201543 81 293 2.0 9.0 0.00 0.00 0.00 20 1015.9
20260507200040 81 243 4.0 10.0 0.00 0.00 0.00 23 1016.1
20260507194608 81 286 2.0 8.0 0.00 0.00 0.00 23 1016.2
20260507193038 79 314 3.0 12.0 0.00 0.00 0.00 26 1016.6
20260507191542 80 297 1.0 10.0 0.00 0.00 0.00 24 1016.6
20260507190037 80 323 1.0 6.0 0.00 0.00 0.00 27 1016.9
20260507184540 78 281 3.0 8.0 0.00 0.00 0.00 28 1017.1
20260507183039 77 292 3.0 6.0 0.00 0.00 0.00 32 1017.3
20260507181535 77 353 5.0 10.0 0.00 0.00 0.00 35 1017.3
20260507180040 77 0 1.0 5.0 0.00 0.00 0.00 34 1017.5
20260507174543 76 205 1.0 7.0 0.00 0.00 0.00 35 1017.7
20260507173039 76 0 2.0 6.0 0.00 0.00 0.00 33 1017.7
20260507171545 75 0 0.0 6.0 0.00 0.00 0.00 38 1017.9
20260507170039 75 0 0.0 4.0 0.00 0.00 0.00 37 1018.0
20260507164538 74 245 0.0 4.0 0.00 0.00 0.00 37 1018.2
20260507163037 74 298 1.0 4.0 0.00 0.00 0.00 36 1018.1
20260507161540 73 0 0.0 2.0 0.00 0.00 0.00 39 1018.3
20260507160037 71 266 2.0 7.0 0.00 0.00 0.00 40 1018.3
20260507154537 70 0 0.0 5.0 0.00 0.00 0.00 43 1018.3
20260507153042 70 285 0.0 5.0 0.00 0.00 0.00 45 1018.4
20260507151534 70 281 0.0 3.0 0.00 0.00 0.00 43 1018.3
20260507150038 68 286 0.0 2.0 0.00 0.00 0.00 46 1018.3
20260507144537 66 0 0.0 0.0 0.00 0.00 0.00 55 1018.4
20260507143038 61 0 0.0 1.0 0.00 0.00 0.00 60 1018.3
20260507141542 56 0 0.0 0.0 0.00 0.00 0.00 66 1018.2
20260507140039 54 0 0.0 0.0 0.00 0.00 0.00 67 1018.1
20260507134539 53 0 0.0 0.0 0.00 0.00 0.00 68 1017.8
20260507133038 52 0 0.0 0.0 0.00 0.00 0.00 68 1017.6
20260507131550 51 274 0.0 0.0 0.00 0.00 0.00 72 1017.5
20260507130040 50 0 0.0 0.0 0.00 0.00 0.00 72 1017.5
20260507124538 50 0 0.0 1.0 0.00 0.00 0.00 70 1017.6
20260507123037 51 0 0.0 0.0 0.00 0.00 0.00 66 1017.5
20260507121539 53 0 0.0 0.0 0.00 0.00 0.00 63 1017.4
20260507120039 53 0 0.0 0.0 0.00 0.00 0.00 64 1017.3
20260507114540 53 0 0.0 0.0 0.00 0.00 0.00 64 1017.3
20260507113039 52 0 0.0 0.0 0.00 0.00 0.00 64 1017.3
20260507111537 52 0 0.0 0.0 0.00 0.00 0.00 63 1017.4
20260507110038 53 0 0.0 1.0 0.00 0.00 0.00 62 1017.4
20260507104539 54 0 0.0 0.0 0.00 0.00 0.00 59 1017.4
20260507103038 55 0 0.0 1.0 0.00 0.00 0.00 57 1017.5
20260507101538 57 0 0.0 0.0 0.00 0.00 0.00 52 1017.6
20260507100041 59 0 0.0 2.0 0.00 0.00 0.00 49 1017.6
20260507094537 60 0 0.0 3.0 0.00 0.00 0.00 48 1017.5
20260507093043 60 0 0.0 5.0 0.00 0.00 0.00 48 1017.5
20260507091538 58 275 0.0 4.0 0.00 0.00 0.00 50 1017.6
20260507090037 55 0 0.0 2.0 0.00 0.00 0.00 57 1017.7
20260507084537 53 0 0.0 2.0 0.00 0.00 0.00 59 1017.8
20260507083038 52 201 0.0 1.0 0.00 0.00 0.00 63 1017.7
20260507081537 52 0 0.0 0.0 0.00 0.00 0.00 68 1017.8
20260507080041 52 0 0.0 0.0 0.00 0.00 0.00 65 1017.7
20260507074539 53 0 0.0 0.0 0.00 0.00 0.00 62 1017.8
20260507073039 53 0 0.0 0.0 0.00 0.00 0.00 62 1017.8
20260507071600 53 0 0.0 0.0 0.00 0.00 0.00 64 1017.7
20260507070039 54 0 0.0 0.0 0.00 0.00 0.00 68 1017.9
20260507064537 53 0 0.0 0.0 0.00 0.00 0.00 69 1017.6
20260507063043 54 0 0.0 0.0 0.00 0.00 0.00 69 1017.5
20260507061540 53 0 0.0 0.0 0.00 0.00 0.00 74 1017.5
20260507060040 54 0 0.0 0.0 0.00 0.00 0.00 69 1017.3
20260507054538 54 0 0.0 0.0 0.00 0.00 0.00 70 1017.5
20260507053106 53 0 0.0 0.0 0.00 0.00 0.00 73 1017.5
20260507051543 54 0 0.0 0.0 0.00 0.00 0.00 68 1017.5
20260507050038 56 0 0.0 0.0 0.00 0.00 0.00 66 1017.5
20260507044534 55 0 0.0 0.0 0.00 0.00 0.00 66 1017.4
20260507043038 56 0 0.0 0.0 0.00 0.00 0.00 67 1017.3
20260507041537 56 0 0.0 0.0 0.00 0.00 0.00 60 1017.2
20260507040036 58 0 0.0 0.0 0.00 0.00 0.00 62 1017.2
20260507034539 60 0 0.0 0.0 0.00 0.05 0.00 57 1017.0
20260507033043 61 0 0.0 0.0 0.00 0.05 0.00 50 1017.0
20260507031539 63 0 0.0 0.0 0.00 0.05 0.00 46 1016.9
20260507030236 66 0 0.0 0.0 0.00 0.05 0.00 44 1016.8
20260507024540 68 0 0.0 0.0 0.00 0.05 0.00 40 1016.6
20260507023343 71 0 0.0 0.0 0.00 0.05 0.00 37 1016.6
20260507021537 74 0 0.0 0.0 0.00 0.05 0.00 35 1016.4
20260507020037 76 0 0.0 1.0 0.00 0.05 0.00 35 1016.5
20260507014547 77 0 0.0 1.0 0.00 0.05 0.00 31 1016.5
20260507013037 78 0 0.0 0.0 0.00 0.05 0.00 31 1016.5
20260507011540 78 0 0.0 4.0 0.00 0.05 0.00 30 1016.5
20260507010038 78 0 0.0 1.0 0.00 0.05 0.00 32 1016.4
20260507004539 79 0 0.0 3.0 0.00 0.05 0.00 34 1016.5
20260507003034 80 0 0.0 2.0 0.00 0.05 0.00 30 1016.6
20260507001655 80 0 0.0 1.0 0.00 0.05 0.00 33 1016.6